Location: Helion Bumpstead
(52.0500°N, 0.4000°E)
Time: 12:01:25
(UTC+00:00)

ACS3 Solar Sail - Pass Details

Date: 15 November 2025
Orbit: 888 x 1002 km, 97.3° (Epoch: 09 December)

Event Time Altitude Azimuth Distance (km) Brightness Sun altitude
Rises 02:18:27 0° 19° (NNE) 3,551 5.3 -44.8°
Reaches altitude 10° 02:21:14 10° 31° (NNE) 2,621 4.5 -44.4°
Enters shadow 02:23:14 19° 47° (NE) 2,057 3.9 -44.2°
